OneWeb SL0446

operational
NORAD ID: 51640 Int'l Des: 2022-012 Owner: ONEWEBN Country: UK Constellation: oneweb
LEOCIRCULARPOLARONEWEB_TYPE

OneWeb SL0446について

説明を読み込み中...

リアルタイム位置

3D地球を読み込み中...

次回通過

高度履歴

Altitude vs Time

uPlot chart will show altitude changes over time

軌道要素

1 51640U 22012U 25354.18871617 -.00000112 00000-0 -35769-3 0 9990
2 51640 87.8807 71.9741 0001540 105.4414 254.6883 13.10375411185886
Epoch: Dec 20, 2025 • Age: 9 hours

現在のステータス

高度 1251.4 km
速度 7.23 km/s
衛星直下点 -82.84°S, 126.45°E
打ち上げ日 Feb 10, 2022
運用期間 3.8 years
タイプ internet

技術仕様

分類 Payload
質量 148.00 kg
乾燥質量 140.00 kg
総質量 148.00 kg
長さ 1.30 m
直径 1.00 m
スパン 5.00 m
形状 Trapezoid+2 pan
製造者 ONEWUS
バスタイプ ARROW
フェーズステータス In Orbit
所有者/国 ONEWEBN/UK

大規模コンステレーション

Loading constellations...